datetime,area
1965-10-25,2050.15
1965-10-26,2056.95
1965-10-27,2056.95
1965-10-28,2043.36
1965-10-29,2036.59
1965-10-30,2029.8
1965-10-31,2023.0
1965-11-01,1999.7
1965-11-02,1976.39
1965-11-03,1956.55
1965-11-04,1932.4
1965-11-05,1903.92
1965-11-06,1873.7
1965-11-07,1842.65
1965-11-08,1813.28
1965-11-09,1781.38
1965-11-10,1747.71
1965-11-11,1714.04
1965-11-12,1671.77
1965-11-13,1632.08
1965-11-14,1598.41
1965-11-15,1579.41
1965-11-16,1569.08
1965-11-17,1565.63
1965-11-18,1567.35
1965-11-19,1573.38
1965-11-20,1586.32
1965-11-21,1598.41
1965-11-22,1598.41
1965-11-23,1600.98
1965-11-24,1624.28
1965-11-25,1646.74
1965-11-26,1667.43
1965-11-27,1657.07
1965-11-28,1644.13
1965-11-29,1630.35
1965-11-30,1630.35
1965-12-01,1647.59
1965-12-02,1674.34
1965-12-03,1705.4
1965-12-04,1729.59
1965-12-05,1747.71
1965-12-06,1764.1
1965-12-07,1777.04
1965-12-08,1791.7
1965-12-09,1808.09
1965-12-10,1823.64
1965-12-11,1841.76
1965-12-12,1863.34
1965-12-13,1881.46
1965-12-14,1897.85
1965-12-15,1906.49
1965-12-16,1909.94
1965-12-17,1910.83
1965-12-18,1908.21
1965-12-19,1904.76
1965-12-20,1903.03
1965-12-21,1904.76
1965-12-22,1902.19
1965-12-23,1903.92
1965-12-24,1907.37
1965-12-25,1907.37
1965-12-26,1902.19
1965-12-27,1900.46
1965-12-28,1896.12
1965-12-29,1893.55
1965-12-30,1891.82
1965-12-31,1895.28
1966-01-01,1899.58
1966-01-02,1906.49
1966-01-03,1905.64
1966-01-04,1897.85
1966-01-05,1894.39
1966-01-06,1896.12
1966-01-07,1907.37
1966-01-08,1922.88
1966-01-09,1934.13
1966-01-10,1938.43
1966-01-11,1932.4
1966-01-12,1934.13
1966-01-13,1928.95
1966-01-14,1922.04
1966-01-15,1915.97
1966-01-16,1904.76
1966-01-17,1889.25
1966-01-18,1871.98
1966-01-19,1855.58
1966-01-20,1843.49
1966-01-21,1840.92
1966-01-22,1839.19
1966-01-23,1839.19
1966-01-24,1841.76
1966-01-25,1845.22
1966-01-26,1850.4
1966-01-27,1855.58
1966-01-28,1860.77
1966-01-29,1862.49
1966-01-30,1866.79
1966-01-31,1871.13
1966-02-01,1877.16
1966-02-02,1883.18
1966-02-03,1888.37
1966-02-04,1894.39
1966-02-05,1898.73
1966-02-06,1904.76
1966-02-07,1909.94
1966-02-08,1912.55
1966-02-09,1912.55
1966-02-10,1911.67
1966-02-11,1912.55
1966-02-12,1910.83
1966-02-13,1907.37
1966-02-14,1897.85
1966-02-15,1891.82
1966-02-16,1885.8
1966-02-17,1880.61
1966-02-18,1881.46
1966-02-19,1882.34
1966-02-20,1886.64
1966-02-21,1890.98
1966-02-22,1895.28
1966-02-23,1899.58
1966-02-24,1903.92
1966-02-25,1908.21
1966-02-26,1911.67
1966-02-27,1913.4
1966-02-28,1915.97
1966-03-01,1920.31
1966-03-02,1921.15
1966-03-03,1919.42
1966-03-04,1913.4
1966-03-05,1904.76
1966-03-06,1894.39
1966-03-07,1883.18
1966-03-08,1884.07
1966-03-09,1890.09
1966-03-10,1896.12
1966-03-11,1898.73
1966-03-12,1900.46
1966-03-13,1904.76
1966-03-14,1925.49
1966-03-15,1936.7
1966-03-16,1944.45
1966-03-17,1948.79
1966-03-18,1949.64
1966-03-19,1946.18
1966-03-20,1944.45
1966-03-21,1943.61
1966-03-22,1940.16
1966-03-23,1932.4
1966-03-24,1927.22
1966-03-25,1925.49
1966-03-26,1929.79
1966-03-27,1936.7
1966-03-28,1950.52
1966-03-29,1960.85
1966-03-30,1966.91
1966-03-31,1995.4
1966-04-01,2065.77
1966-04-02,2173.75
1966-04-03,2270.83
1966-04-04,2284.42
1966-04-05,2183.23
1966-04-06,2060.33
1966-04-07,1957.43
1966-04-08,1849.56
1966-04-09,1748.55
1966-04-10,1751.16
1966-04-11,1763.26
1966-04-12,1745.1
1966-04-13,1712.31
1966-04-14,1707.13
1966-04-15,1738.23
1966-04-16,1771.85
1966-04-17,1818.46
1966-04-18,1862.49
1966-04-19,1879.73
1966-04-20,1845.22
1966-04-21,1812.43
1966-04-22,1802.95
1966-04-23,1808.09
1966-04-24,1823.64
1966-04-25,1837.46
1966-04-26,1850.4
1966-04-27,1859.88
1966-04-28,1861.61
1966-04-29,1851.24
1966-04-30,1842.65
1966-05-01,1838.31
1966-05-02,1836.58
1966-05-03,1844.37
1966-05-04,1860.77
1966-05-05,1887.52
1966-05-06,1910.83
1966-05-07,1963.46
1966-05-08,2046.08
1966-05-09,2126.87
1966-05-10,2128.23
1966-05-11,2130.95
1966-05-12,2104.49
1966-05-13,1974.67
1966-05-14,1839.19
1966-05-15,1784.83
1966-05-16,1785.68
1966-05-17,1783.95
1966-05-18,1790.86
1966-05-19,1804.68
1966-05-20,1795.16
1966-05-21,1820.19
1966-05-22,1839.19
1966-05-23,1897.01
1966-05-24,1972.94
1966-05-25,1973.82
1966-05-26,1961.73
1966-05-27,1973.82
1966-05-28,2029.1
1966-05-29,2050.85
1966-05-30,2038.62
1966-05-31,2033.18
1966-06-01,2025.72
1966-06-02,1997.97
1966-06-03,1928.95
1966-06-04,1847.83
1966-06-05,1802.07
1966-06-06,1809.82
1966-06-07,1823.64
1966-06-08,1826.25
1966-06-09,1841.76
1966-06-10,1850.4
1966-06-11,1846.94
1966-06-12,1858.15
1966-06-13,1859.88
1966-06-14,1837.46
1966-06-15,1820.19
1966-06-16,1813.28
1966-06-17,1808.98
1966-06-18,1809.82
1966-06-19,1834.85
1966-06-20,1875.43
1966-06-21,1928.06
1966-06-22,1996.24
1966-06-23,2067.82
1966-06-24,2091.56
1966-06-25,2097.0
1966-06-26,2046.08
1966-06-27,1949.64
1966-06-28,1911.67
1966-06-29,1891.82
1966-06-30,1884.91
1966-07-01,1890.09
1966-07-02,1913.4
1966-07-03,1936.7
1966-07-04,1940.16
1966-07-05,1932.4
1966-07-06,1919.42
1966-07-07,1914.28
1966-07-08,1906.49
1966-07-09,1890.09
1966-07-10,1876.27
1966-07-11,1879.73
1966-07-12,1888.37
1966-07-13,1890.98
1966-07-14,1892.71
1966-07-15,1892.71
1966-07-16,1883.18
1966-07-17,1874.55
1966-07-18,1877.16
1966-07-19,1886.64
1966-07-20,1896.12
1966-07-21,1897.01
1966-07-22,1899.58
1966-07-23,1901.3
1966-07-24,1895.28
1966-07-25,1889.25
1966-07-26,1893.55
1966-07-27,1905.64
1966-07-28,1913.4
1966-07-29,1912.55
1966-07-30,1909.1
1966-07-31,1905.64
1966-08-01,1902.19
1966-08-02,1906.49
1966-08-03,1913.4
1966-08-04,1920.31
1966-08-05,1930.67
1966-08-06,1937.54
1966-08-07,1940.16
1966-08-08,1936.7
1966-08-09,1927.22
1966-08-10,1914.28
1966-08-11,1905.64
1966-08-12,1903.03
1966-08-13,1898.73
1966-08-14,1896.12
1966-08-15,1895.28
1966-08-16,1897.85
1966-08-17,1900.46
1966-08-18,1897.01
1966-08-19,1896.12
1966-08-20,1898.73
1966-08-21,1903.92
1966-08-22,1904.76
1966-08-23,1901.3
1966-08-24,1900.46
1966-08-25,1897.85
1966-08-26,1897.85
1966-08-27,1902.19
1966-08-28,1906.49
1966-08-29,1906.49
1966-08-30,1904.76
1966-08-31,1903.92
1966-09-01,1903.03
1966-09-02,1905.64
1966-09-03,1925.49
1966-09-04,1942.73
1966-09-05,1953.09
1966-09-06,1951.36
1966-09-07,1949.64
1966-09-08,1947.07
1966-09-09,1939.27
1966-09-10,1933.24
1966-09-11,1928.06
1966-09-12,1924.61
1966-09-13,1922.88
1966-09-14,1928.95
1966-09-15,1936.7
1966-09-16,1944.45
1966-09-17,1953.09
1966-09-18,1960.0
1966-09-19,1960.0
1966-09-20,1953.98
1966-09-21,1946.18
1966-09-22,1940.16
1966-09-23,1935.86
1966-09-24,1932.4
1966-09-25,1933.24
1966-09-26,1931.52
1966-09-27,1929.79
1966-09-28,1928.95
1966-09-29,1927.22
1966-09-30,1925.49
1966-10-01,1925.49
1966-10-02,1926.33
1966-10-03,1927.22
1966-10-04,1930.67
1966-10-05,1934.97
1966-10-06,1938.43
1966-10-07,1935.86
1966-10-08,1934.97
1966-10-09,1934.13
1966-10-10,1934.13
1966-10-11,1935.86
1966-10-12,1937.54
1966-10-13,1944.45
1966-10-14,1953.98
1966-10-15,1961.73
1966-10-16,1969.48
1966-10-17,1980.69
1966-10-18,1992.79
1966-10-19,2003.15
1966-10-20,2008.34
1966-10-21,2018.7
1966-10-22,2036.59
1966-10-23,2052.21
1966-10-24,2067.82
1966-10-25,2083.44
1966-10-26,2099.72
1966-10-27,2116.69
1966-10-28,2133.67
1966-10-29,2147.26
1966-10-30,2160.16
1966-10-31,2173.06
1966-11-01,2188.67
1966-11-02,2204.29
1966-11-03,2218.54
1966-11-04,2232.8
1966-11-05,2245.7
1966-11-06,2259.29
1966-11-07,2273.55
1966-11-08,2287.14
1966-11-09,2300.04
1966-11-10,2312.24
1966-11-11,2325.83
1966-11-12,2340.09
1966-11-13,2353.68
1966-11-14,2362.5
1966-11-15,2361.14
1966-11-16,2357.06
1966-11-17,2352.32
1966-11-18,2346.88
1966-11-19,2340.78
1966-11-20,2335.35
1966-11-21,2331.27
1966-11-22,2329.91
1966-11-23,2328.55
1966-11-24,2326.53
1966-11-25,2326.53
1966-11-26,2329.91
1966-11-27,2336.01
1966-11-28,2344.86
1966-11-29,2355.7
1966-11-30,2367.24
1966-12-01,2380.14
1966-12-02,2391.01
1966-12-03,2399.17
1966-12-04,2405.27
1966-12-05,2407.99
1966-12-06,2406.63
1966-12-07,2403.91
1966-12-08,2395.79
1966-12-09,2393.07
1966-12-10,2394.43
1966-12-11,2395.79
1966-12-12,2397.81
1966-12-13,2400.53
1966-12-14,2401.89
1966-12-15,2399.83
1966-12-16,2395.09
1966-12-17,2391.01
1966-12-18,2385.58
1966-12-19,2380.83
1966-12-20,2376.76
1966-12-21,2374.73
1966-12-22,2376.09
1966-12-23,2379.48
1966-12-24,2383.55
1966-12-25,2388.29
1966-12-26,2394.43
1966-12-27,2399.83
1966-12-28,2406.63
1966-12-29,2413.43
1966-12-30,2421.58
1966-12-31,2430.4
1967-01-01,2438.56
1967-01-02,2446.02
1967-01-03,2452.81
1967-01-04,2460.27
1967-01-05,2467.73
1967-01-06,2475.22
1967-01-07,2481.32
1967-01-08,2488.12
1967-01-09,2495.58
1967-01-10,2503.74
1967-01-11,2512.56
1967-01-12,2519.35
1967-01-13,2526.81
1967-01-14,2532.91
1967-01-15,2540.41
1967-01-16,2549.89
1967-01-17,2556.68
1967-01-18,2563.48
1967-01-19,2569.58
1967-01-20,2576.38
1967-01-21,2582.51
1967-01-22,2589.28
1967-01-23,2596.07
1967-01-24,2602.87
1967-01-25,2609.67
1967-01-26,2617.79
1967-01-27,2626.64
1967-01-28,2636.12
1967-01-29,2646.33
1967-01-30,2656.51
1967-01-31,2667.39
1967-02-01,2676.87
1967-02-02,2686.38
1967-02-03,2695.2
1967-02-04,2703.98
1967-02-05,2713.28
1967-02-06,2723.24
1967-02-07,2731.89
1967-02-08,2740.52
1967-02-09,2748.49
1967-02-10,2757.12
1967-02-11,2766.42
1967-02-12,2775.05
1967-02-13,2783.67
1967-02-14,2792.29
1967-02-15,2802.25
1967-02-16,2811.55
1967-02-17,2821.51
1967-02-18,2830.81
1967-02-19,2841.45
1967-02-20,2850.75
1967-02-21,2859.38
1967-02-22,2868.0
1967-02-23,2877.31
1967-02-24,2886.58
1967-02-25,2896.56
1967-02-26,2907.17
1967-02-27,2917.15
1967-02-28,2927.11
1967-03-01,2939.72
1967-03-02,2952.98
1967-03-03,2965.62
1967-03-04,2979.56
1967-03-05,2993.51
1967-03-06,3006.12
1967-03-07,3018.73
1967-03-08,3030.69
1967-03-09,3043.31
1967-03-10,3056.57
1967-03-11,3069.86
1967-03-12,3083.8
1967-03-13,3097.09
1967-03-14,3110.35
1967-03-15,3122.97
1967-03-16,3135.58
1967-03-17,3147.54
1967-03-18,3160.15
1967-03-19,3172.77
1967-03-20,3186.06
1967-03-21,3198.67
1967-03-22,3211.28
1967-03-23,3225.22
1967-03-24,3239.85
1967-03-25,3253.79
1967-03-26,3268.38
1967-03-27,3282.35
1967-03-28,3277.03
1967-03-29,3247.14
1967-03-30,3198.67
1967-03-31,3133.6
1967-04-01,3050.6
1967-04-02,2980.89
1967-04-03,2918.45
1967-04-04,2858.05
1967-04-05,2832.14
1967-04-06,2845.43
1967-04-07,2846.76
1967-04-08,2838.11
1967-04-09,2830.81
1967-04-10,2824.85
1967-04-11,2821.51
1967-04-12,2821.51
1967-04-13,2813.56
1967-04-14,2782.34
1967-04-15,2722.59
1967-04-16,2649.05
1967-04-17,2570.28
1967-04-18,2486.76
1967-04-19,2401.89
1967-04-20,2313.6
1967-04-21,2245.03
1967-04-22,2152.7
1967-04-23,2042.69
1967-04-24,1911.67
1967-04-25,1755.46
1967-04-26,1656.23
1967-04-27,1651.04
1967-04-28,1649.31
1967-04-29,1647.59
1967-04-30,1639.83
1967-05-01,1645.86
1967-05-02,1635.49
1967-05-03,1624.28
1967-05-04,1643.29
1967-05-05,1682.98
1967-05-06,1730.43
1967-05-07,1766.67
1967-05-08,1793.43
1967-05-09,1792.59
1967-05-10,1783.1
1967-05-11,1753.73
1967-05-12,1700.22
1967-05-13,1640.68
1967-05-14,1634.65
1967-05-15,1682.1
1967-05-16,1715.77
1967-05-17,1711.47
1967-05-18,1694.19
1967-05-19,1693.35
1967-05-20,1710.58
1967-05-21,1736.5
1967-05-22,1705.4
1967-05-23,1654.5
1967-05-24,1626.9
1967-05-25,1594.96
1967-05-26,1611.35
1967-05-27,1600.98
1967-05-28,1499.17
1967-05-29,1474.99
1967-05-30,1512.11
1967-05-31,1667.43
1967-06-01,1607.89
1967-06-02,1633.81
1967-06-03,1623.44
1967-06-04,1634.65
1967-06-05,1689.89
1967-06-06,1759.8
1967-06-07,1746.82
1967-06-08,1723.52
1967-06-09,1670.89
1967-06-10,1596.68
1967-06-11,1557.83
1967-06-12,1558.72
1967-06-13,1550.92
1967-06-14,1506.04
1967-06-15,1518.14
1967-06-16,1578.56
1967-06-17,1617.37
1967-06-18,1626.9
1967-06-19,1663.14
1967-06-20,1620.83
1967-06-21,1639.83
1967-06-22,1712.31
1967-06-23,1822.8
1967-06-24,2009.18
1967-06-25,2199.55
1967-06-26,2273.55
1967-06-27,2238.93
1967-06-28,2176.44
1967-06-29,2157.44
1967-06-30,2209.73
1967-07-01,2232.8
1967-07-02,2229.42
1967-07-03,2218.54
1967-07-04,2221.26
1967-07-05,2244.34
1967-07-06,2300.04
1967-07-07,2343.5
1967-07-08,2356.4
1967-07-09,2328.55
1967-07-10,2249.78
1967-07-11,2141.16
1967-07-12,1987.6
1967-07-13,1789.13
1967-07-14,1686.44
1967-07-15,1670.89
1967-07-16,1664.86
1967-07-17,1649.31
1967-07-18,1647.59
1967-07-19,1640.68
1967-07-20,1610.5
1967-07-21,1571.65
1967-07-22,1495.72
1967-07-23,1404.24
1967-07-24,1210.9
1967-07-25,786.47
1967-07-26,403.15
1967-07-27,389.33
1967-07-28,430.46
1967-07-29,996.99
1967-07-30,1262.69
1967-07-31,1437.02
1967-08-01,1577.68
1967-08-02,1699.38
1967-08-03,1785.68
1967-08-04,1859.88
1967-08-05,1924.61
1967-08-06,1979.85
1967-08-07,2027.08
1967-08-08,2061.69
1967-08-09,2097.7
1967-08-10,2133.01
1967-08-11,2158.14
1967-08-12,2174.42
1967-08-13,2183.23
1967-08-14,2191.39
1967-08-15,2196.13
1967-08-16,2196.13
1967-08-17,2189.37
1967-08-18,2205.65
1967-08-19,2192.75
1967-08-20,2177.13
1967-08-21,2159.46
1967-08-22,2139.11
1967-08-23,2113.31
1967-08-24,2084.1
1967-08-25,2092.26
1967-08-26,2117.39
1967-08-27,2132.31
1967-08-28,2103.8
1967-08-29,2074.59
1967-08-30,2041.33
1967-08-31,2003.15
1967-09-01,1987.6
1967-09-02,1953.98
1967-09-03,1915.13
1967-09-04,1873.7
1967-09-05,1827.98
1967-09-06,1782.22
1967-09-07,1751.16
1967-09-08,1698.53
1967-09-09,1638.95
1967-09-10,1584.59
1967-09-11,1571.65
1967-09-12,1571.65
1967-09-13,1573.38
1967-09-14,1582.86
1967-09-15,1591.5
1967-09-16,1595.8
1967-09-17,1597.53
1967-09-18,1603.59
1967-09-19,1617.37
1967-09-20,1620.83
1967-09-21,1613.08
1967-09-22,1599.25
1967-09-23,1582.02
1967-09-24,1563.9
1967-09-25,1556.1
1967-09-26,1558.72
1967-09-27,1561.29
1967-09-28,1564.74
1967-09-29,1568.2
1967-09-30,1570.77
1967-10-01,1572.5
1967-10-02,1580.29
1967-10-03,1593.23
1967-10-04,1600.98
1967-10-05,1603.59
1967-10-06,1609.62
1967-10-07,1623.44
1967-10-08,1663.14
1967-10-09,1680.37
1967-10-10,1693.35
1967-10-11,1689.89
1967-10-12,1675.23
1967-10-13,1659.68
1967-10-14,1639.83
1967-10-15,1598.41
1967-10-16,1563.9
1967-10-17,1558.72
1967-10-18,1566.47
1967-10-19,1575.11
1967-10-20,1580.29
1967-10-21,1584.59
1967-10-22,1588.04
1967-10-23,1588.93
1967-10-24,1589.77
1967-10-25,1592.34
1967-10-26,1596.68
1967-10-27,1600.98
1967-10-28,1603.59
1967-10-29,1606.16
1967-10-30,1606.16
1967-10-31,1607.05
1967-11-01,1610.5
1967-11-02,1611.35
1967-11-03,1610.5
1967-11-04,1605.32
1967-11-05,1599.25
1967-11-06,1606.16
1967-11-07,1621.71
1967-11-08,1639.83
1967-11-09,1659.68
1967-11-10,1682.98
1967-11-11,1708.86
1967-11-12,1730.43
1967-11-13,1724.41
1967-11-14,1695.92
1967-11-15,1660.52
1967-11-16,1625.17
1967-11-17,1590.66
1967-11-18,1562.17
1967-11-19,1539.71
1967-11-20,1524.2
1967-11-21,1519.02
1967-11-22,1512.95
1967-11-23,1503.47
1967-11-24,1515.57
1967-11-25,1532.8
1967-11-26,1542.32
1967-11-27,1541.44
1967-11-28,1551.81
1967-11-29,1580.29
1967-11-30,1612.23
1967-12-01,1639.83
1967-12-02,1663.14
1967-12-03,1685.55
1967-12-04,1710.58
1967-12-05,1733.04
1967-12-06,1751.16
1967-12-07,1767.56
1967-12-08,1785.68
1967-12-09,1804.68
1967-12-10,1826.25
1967-12-11,1849.56
1967-12-12,1871.98
1967-12-13,1892.71
1967-12-14,1917.7
1967-12-15,1942.73
1967-12-16,1969.48
1967-12-17,1992.79
1967-12-18,2016.09
1967-12-19,2035.23
1967-12-20,2053.57
1967-12-21,2071.9
1967-12-22,2089.54
1967-12-23,2109.9
1967-12-24,2130.95
1967-12-25,2151.34
1967-12-26,2168.98
1967-12-27,2186.65
1967-12-28,2202.93
1967-12-29,2221.26
1967-12-30,2238.24
1967-12-31,2251.83
1968-01-01,2269.47
1968-01-02,2287.8
1968-01-03,2304.12
1968-01-04,2319.73
1968-01-05,2336.01
1968-01-06,2352.32
1968-01-07,2367.24
1968-01-08,2382.86
1968-01-09,2397.11
1968-01-10,2412.07
1968-01-11,2428.38
1968-01-12,2441.27
1968-01-13,2452.81
1968-01-14,2465.01
1968-01-15,2477.25
1968-01-16,2490.84
1968-01-17,2503.74
1968-01-18,2515.28
1968-01-19,2526.81
1968-01-20,2538.35
1968-01-21,2551.25
1968-01-22,2562.82
1968-01-23,2575.02
1968-01-24,2588.61
1968-01-25,2602.87
1968-01-26,2615.77
1968-01-27,2629.36
1968-01-28,2641.56
1968-01-29,2653.1
1968-01-30,2664.67
1968-01-31,2677.57
1968-02-01,2690.46
1968-02-02,2703.33
1968-02-03,2714.61
1968-02-04,2727.22
1968-02-05,2741.17
1968-02-06,2756.44
1968-02-07,2771.71
1968-02-08,2785.65
1968-02-09,2799.62
1968-02-10,2814.21
1968-02-11,2828.83
1968-02-12,2842.78
1968-02-13,2856.72
1968-02-14,2869.98
1968-02-15,2881.29
1968-02-16,2889.24
1968-02-17,2898.54
1968-02-18,2909.18
1968-02-19,2921.11
1968-02-20,2933.75
1968-02-21,2946.36
1968-02-22,2958.98
1968-02-23,2971.59
1968-02-24,2982.87
1968-02-25,2994.83
1968-02-26,3006.12
1968-02-27,3018.05
1968-02-28,3029.36
1968-02-29,3039.97
1968-03-01,3051.25
1968-03-02,3065.22
1968-03-03,3077.15
1968-03-04,3088.44
1968-03-05,3101.05
1968-03-06,3113.69
1968-03-07,3125.62
1968-03-08,3138.24
1968-03-09,3151.53
1968-03-10,3162.81
1968-03-11,3173.45
1968-03-12,3184.05
1968-03-13,3196.01
1968-03-14,3206.65
1968-03-15,3221.24
1968-03-16,3235.18
1968-03-17,3249.15
1968-03-18,3265.07
1968-03-19,3283.65
1968-03-20,3304.24
1968-03-21,3328.16
1968-03-22,3351.38
1968-03-23,3374.7
1968-03-24,3405.12
1968-03-25,3421.63
1968-03-26,3407.71
1968-03-27,3393.79
1968-03-28,3375.55
1968-03-29,3362.69
1968-03-30,3358.02
1968-03-31,3359.35
1968-04-01,3387.73
1968-04-02,3443.35
1968-04-03,3501.57
1968-04-04,3556.31
1968-04-05,3604.13
1968-04-06,3648.43
1968-04-07,3688.4
1968-04-08,3721.41
1968-04-09,3750.98
1968-04-10,3780.51
1968-04-11,3819.64
1968-04-12,3866.52
1968-04-13,3916.08
1968-04-14,3960.38
1968-04-15,3996.03
1968-04-16,4029.04
1968-04-17,4065.53
1968-04-18,4095.1
1968-04-19,4122.9
1968-04-20,4149.84
1968-04-21,4175.04
1968-04-22,4198.51
1968-04-23,4221.08
1968-04-24,4245.46
1968-04-25,4273.68
1968-04-26,4299.8
1968-04-27,4325.93
1968-04-28,4354.14
1968-04-29,4383.38
1968-04-30,4414.76
1968-05-01,4450.87
1968-05-02,4497.87
1968-05-03,4553.56
1968-05-04,4611.44
1968-05-05,4671.56
1968-05-06,4726.18
1968-05-07,4768.8
1968-05-08,4798.3
1968-05-09,4817.93
1968-05-10,4838.69
1968-05-11,4866.0
1968-05-12,4896.63
1968-05-13,4930.05
1968-05-14,4972.41
1968-05-15,5013.68
1968-05-16,5044.93
1968-05-17,5062.73
1968-05-18,5059.41
1968-05-19,5050.48
1968-05-20,5034.86
1968-05-21,5017.05
1968-05-22,5009.21
1968-05-23,5012.59
1968-05-24,5043.79
1968-05-25,5073.89
1968-05-26,5095.07
1968-05-27,5121.54
1968-05-28,5144.85
1968-05-29,5169.73
1968-05-30,5210.58
1968-05-31,5280.65
1968-06-01,5360.93
1968-06-02,5448.15
1968-06-03,5565.03
1968-06-04,5707.29
1968-06-05,5939.16
1968-06-06,6181.67
1968-06-07,6364.91
1968-06-08,6503.68
1968-06-09,6601.1
1968-06-10,6667.26
1968-06-11,6656.78
1968-06-12,6624.32
1968-06-13,6575.61
1968-06-14,6594.13
1968-06-15,6635.93
1968-06-16,6657.97
1968-06-17,6646.36
1968-06-18,6640.58
1968-06-19,6653.32
1968-06-20,6680.0
1968-06-21,6705.54
1968-06-22,6728.5
1968-06-23,6731.62
1968-06-24,6721.49
1968-06-25,6749.56
1968-06-26,6826.76
1968-06-27,6919.78
1968-06-28,6969.35
1968-06-29,7040.89
1968-06-30,7122.01
1968-07-01,7193.23
1968-07-02,7249.45
1968-07-03,7256.38
1968-07-04,7267.66
1968-07-05,7284.93
1968-07-06,7301.36
1968-07-07,7319.52
1968-07-08,7341.15
1968-07-09,7368.27
1968-07-10,7402.79
1968-07-11,7439.96
1968-07-12,7478.89
1968-07-13,7523.14
1968-07-14,7567.27
1968-07-15,7610.13
1968-07-16,7651.27
1968-07-17,7691.59
1968-07-18,7732.77
1968-07-19,7766.36
1968-07-20,7796.59
1968-07-21,7822.64
1968-07-22,7847.0
1968-07-23,7874.63
1968-07-24,7900.29
1968-07-25,7922.13
1968-07-26,7942.08
1968-07-27,7962.07
1968-07-28,7978.21
1968-07-29,7990.55
1968-07-30,8001.96
1968-07-31,8010.5
1968-08-01,8019.04
1968-08-02,8028.54
1968-08-03,8035.18
1968-08-04,8042.79
1968-08-05,8045.66
1968-08-06,8046.59
1968-08-07,8045.66
1968-08-08,8048.49
1968-08-09,8053.27
1968-08-10,8071.31
1968-08-11,8077.95
1968-08-12,8070.34
1968-08-13,8082.68
1968-08-14,8082.68
1968-08-15,8070.34
1968-08-16,8073.21
1968-08-17,8080.82
1968-08-18,8075.12
1968-08-19,8077.02
1968-08-20,8086.48
1968-08-21,8081.75
1968-08-22,8076.04
1968-08-23,8081.75
1968-08-24,8081.75
1968-08-25,8064.63
1968-08-26,8055.17
1968-08-27,8047.56
1968-08-28,8033.32
1968-08-29,8051.37
1968-08-30,8040.88
1968-08-31,8010.5
1968-09-01,7971.54
1968-09-02,7927.84
1968-09-03,7900.29
1968-09-04,7878.44
1968-09-05,7867.18
1968-09-06,7863.82
1968-09-07,7858.77
1968-09-08,7848.68
1968-09-09,7835.23
1968-09-10,7830.18
1968-09-11,7818.45
1968-09-12,7814.23
1968-09-13,7803.32
1968-09-14,7793.23
1968-09-15,7784.0
1968-09-16,7777.27
1968-09-17,7774.77
1968-09-18,7771.41
1968-09-19,7768.04
1968-09-20,7762.18
1968-09-21,7752.91
1968-09-22,7744.5
1968-09-23,7736.96
1968-09-24,7728.55
1968-09-25,7718.5
1968-09-26,7705.04
1968-09-27,7681.5
1968-09-28,7650.45
1968-09-29,7620.18
1968-09-30,7590.82
1968-10-01,7563.91
1968-10-02,7533.68
1968-10-03,7503.7
1968-10-04,7470.94
1968-10-05,7437.32
1968-10-06,7403.66
1968-10-07,7368.27
1968-10-08,7335.11
1968-10-09,7298.78
1968-10-10,7290.97
1968-10-11,7272.81
1968-10-12,7239.95
1968-10-13,7203.63
1968-10-14,7167.64
1968-10-15,7135.54
1968-10-16,7105.96
1968-10-17,7084.83
1968-10-18,7078.07
1968-10-19,7072.99
1968-10-20,7067.09
1968-10-21,7062.84
1968-10-22,7061.15
1968-10-23,7058.63
1968-10-24,7056.08
1968-10-25,7054.42
1968-10-26,7052.73
1968-10-27,7050.18
1968-10-28,7052.73
1968-10-29,7057.77
1968-10-30,7056.94
1968-10-31,7054.42
1968-11-01,7051.04
1968-11-02,7045.1
1968-11-03,7045.1
1968-11-04,7045.97
1968-11-05,7045.97
1968-11-06,7040.89
1968-11-07,7036.64
1968-11-08,7035.82
1968-11-09,7036.64
1968-11-10,7035.82
1968-11-11,7034.95
1968-11-12,7037.51
1968-11-13,7038.33
1968-11-14,7039.2
1968-11-15,7036.64
1968-11-16,7035.82
1968-11-17,7032.43
1968-11-18,7024.84
1968-11-19,7022.28
1968-11-20,7032.43
1968-11-21,7047.66
1968-11-22,7062.02
1968-11-23,7076.38
1968-11-24,7089.91
1968-11-25,7094.12
1968-11-26,7083.97
1968-11-27,7067.92
1968-11-28,7051.04
1968-11-29,7047.66
1968-11-30,7055.25
1968-12-01,7066.23
1968-12-02,7075.55
1968-12-03,7082.28
1968-12-04,7088.22
1968-12-05,7094.12
1968-12-06,7100.02
1968-12-07,7105.96
1968-12-08,7111.03
1968-12-09,7115.24
1968-12-10,7119.45
1968-12-11,7124.53
1968-12-12,7127.91
1968-12-13,7130.47
1968-12-14,7132.98
1968-12-15,7136.37
1968-12-16,7138.92
1968-12-17,7141.44
1968-12-18,7143.96
1968-12-19,7145.65
1968-12-20,7146.52
1968-12-21,7148.21
1968-12-22,7149.9
1968-12-23,7150.73
1968-12-24,7149.03
1968-12-25,7145.65
1968-12-26,7141.44
1968-12-27,7138.06
1968-12-28,7133.85
1968-12-29,7130.47
1968-12-30,7127.08
1968-12-31,7122.83
1969-01-01,7121.14
1969-01-02,7120.32
1969-01-03,7118.63
1969-01-04,7116.93
1969-01-05,7114.42
1969-01-06,7111.86
1969-01-07,7108.48
1969-01-08,7104.27
1969-01-09,7099.19
1969-01-10,7094.12
1969-01-11,7089.04
1969-01-12,7083.97
1969-01-13,7078.07
1969-01-14,7074.68
1969-01-15,7071.3
1969-01-16,7067.09
1969-01-17,7062.84
1969-01-18,7056.94
1969-01-19,7051.87
1969-01-20,7047.66
1969-01-21,7043.41
1969-01-22,7039.2
1969-01-23,7035.82
1969-01-24,7032.43
1969-01-25,7029.05
1969-01-26,7023.98
1969-01-27,7017.21
1969-01-28,7008.56
1969-01-29,6998.19
1969-01-30,6984.89
1969-01-31,6969.35
1969-02-01,6949.37
1969-02-02,6928.63
1969-02-03,6907.93
1969-02-04,6886.46
1969-02-05,6866.48
1969-02-06,6842.38
1969-02-07,6816.63
1969-02-08,6792.45
1969-02-09,6769.06
1969-02-10,6744.12
1969-02-11,6717.57
1969-02-12,6682.32
1969-02-13,6642.9
1969-02-14,6604.61
1969-02-15,6565.13
1969-02-16,6525.71
1969-02-17,6486.29
1969-02-18,6444.46
1969-02-19,6401.1
1969-02-20,6358.91
1969-02-21,6317.96
1969-02-22,6276.95
1969-02-23,6233.53
1969-02-24,6192.76
1969-02-25,6150.79
1969-02-26,6110.03
1969-02-27,6069.26
1969-02-28,6027.29
1969-03-01,5990.21
1969-03-02,5948.83
1969-03-03,5908.66
1969-03-04,5868.49
1969-03-05,5826.97
1969-03-06,5786.8
1969-03-07,5746.63
1969-03-08,5705.67
1969-03-09,5656.68
1969-03-10,5607.7
1969-03-11,5565.03
1969-03-12,5552.46
1969-03-13,5560.33
1969-03-14,5565.03
1969-03-15,5571.36
1969-03-16,5577.68
1969-03-17,5585.63
1969-03-18,5595.04
1969-03-19,5601.37
1969-03-20,5607.7
1969-03-21,5612.48
1969-03-22,5618.8
1969-03-23,5628.29
1969-03-24,5625.13
1969-03-25,5614.02
1969-03-26,5601.37
1969-03-27,5590.34
1969-03-28,5574.52
1969-03-29,5555.54
1969-03-30,5533.48
1969-03-31,5512.96
1969-04-01,5492.36
1969-04-02,5470.29
1969-04-03,5468.67
1969-04-04,5484.49
1969-04-05,5512.96
1969-04-06,5555.54
1969-04-07,5604.53
1969-04-08,5666.17
1969-04-09,5757.72
1969-04-10,5851.85
1969-04-11,5962.69
1969-04-12,6065.58
1969-04-13,6163.15
1969-04-14,6250.47